• In Czech Republic
  • List of Countries
  • For 7 days
  • Water Temperature
  • Satellite Maps
  • Weather Map
  • Weather Widgets
  • user-avatar
    Login

    Hourly Weather Pamashtur

    Today, 20 September, Thursday

    Time Temperature Precipitation Wind Pressure Humidity
    00:00 +6°C° 0 mm 2 mps 749 mmHg 92%
    01:00 +6°C° 0 mm 2 mps 749 mmHg 93%
    02:00 +6°C° 0 mm 2 mps 749 mmHg 94%
    03:00 +5°C° 0 mm 2 mps 749 mmHg 95%
    04:00 +5°C° 0 mm 2 mps 749 mmHg 95%
    05:00 +5°C° 0 mm 2 mps 749 mmHg 95%
    06:00 +5°C° 0 mm 2 mps 750 mmHg 95%
    07:00 +7°C° 0 mm 2 mps 750 mmHg 87%
    08:00 +9°C° 0 mm 2 mps 750 mmHg 79%
    09:00 +12°C° 0 mm 2 mps 750 mmHg 71%
    10:00 +13°C° 0 mm 2 mps 750 mmHg 67%
    11:00 +14°C° 0 mm 2 mps 750 mmHg 63%
    12:00 +16°C° 0 mm 2 mps 750 mmHg 59%
    13:00 +15°C° 0 mm 2 mps 750 mmHg 62%
    14:00 +15°C° 0 mm 1 mps 749 mmHg 64%
    15:00 +15°C° 0 mm 1 mps 749 mmHg 67%
    16:00 +14°C° 0 mm 1 mps 749 mmHg 70%
    17:00 +14°C° 0 mm 1 mps 749 mmHg 74%
    18:00 +12°C° 0 mm 0 mps 750 mmHg 78%
    19:00 +12°C° 0.1 mm 0 mps 750 mmHg 80%
    20:00 +13°C° 0.1 mm 1 mps 750 mmHg 81%
    21:00 +12°C° 0.1 mm 1 mps 750 mmHg 83%
    22:00 +12°C° 0.1 mm 1 mps 750 mmHg 84%
    23:00 +11°C° 0.1 mm 0 mps 750 mmHg 85%

    Tomorrow, 21 September, Friday

    Time Temperature Precipitation Wind Pressure Humidity
    00:00 +11°C° 0.1 mm 0 mps 750 mmHg 87%
    01:00 +12°C° 0.1 mm 1 mps 751 mmHg 88%
    02:00 +12°C° 0.1 mm 1 mps 751 mmHg 90%
    03:00 +12°C° 0.1 mm 1 mps 751 mmHg 91%
    04:00 +12°C° 0 mm 1 mps 751 mmHg 92%
    05:00 +12°C° 0 mm 1 mps 752 mmHg 94%
    06:00 +12°C° 0 mm 1 mps 752 mmHg 95%
    07:00 +13°C° 0.1 mm 1 mps 753 mmHg 94%
    08:00 +13°C° 0.1 mm 2 mps 753 mmHg 93%
    09:00 +14°C° 0.1 mm 2 mps 753 mmHg 92%
    10:00 +15°C° 0 mm 2 mps 754 mmHg 88%
    11:00 +16°C° 0 mm 2 mps 754 mmHg 85%
    12:00 +17°C° 0 mm 3 mps 754 mmHg 82%
    13:00 +17°C° 0 mm 3 mps 754 mmHg 81%
    14:00 +17°C° 0 mm 3 mps 754 mmHg 79%
    15:00 +18°C° 0 mm 3 mps 754 mmHg 78%
    16:00 +17°C° 0 mm 2 mps 755 mmHg 82%
    17:00 +16°C° 0 mm 2 mps 755 mmHg 86%
    18:00 +15°C° 0 mm 1 mps 755 mmHg 89%
    19:00 +15°C° 0 mm 1 mps 755 mmHg 91%
    20:00 +14°C° 0 mm 2 mps 756 mmHg 92%
    21:00 +14°C° 0 mm 2 mps 756 mmHg 93%
    22:00 +14°C° 0 mm 2 mps 756 mmHg 94%
    23:00 +14°C° 0 mm 1 mps 756 mmHg 94%

    Day after tomorrow, 22 September, Saturday

    Time Temperature Precipitation Wind Pressure Humidity
    00:00 +13°C° 0 mm 1 mps 756 mmHg 94%
    01:00 +13°C° 0 mm 1 mps 756 mmHg 94%
    02:00 +13°C° 0 mm 1 mps 757 mmHg 95%
    03:00 +13°C° 0 mm 1 mps 757 mmHg 95%
    04:00 +13°C° 0 mm 2 mps 757 mmHg 95%
    05:00 +13°C° 0 mm 2 mps 757 mmHg 96%
    06:00 +13°C° 0 mm 2 mps 757 mmHg 96%
    07:00 +15°C° 0 mm 2 mps 757 mmHg 91%
    08:00 +16°C° 0 mm 2 mps 757 mmHg 86%
    09:00 +18°C° 0 mm 2 mps 757 mmHg 80%
    10:00 +20°C° 0 mm 2 mps 757 mmHg 75%
    11:00 +21°C° 0 mm 3 mps 757 mmHg 69%
    12:00 +22°C° 0 mm 3 mps 756 mmHg 64%
    13:00 +24°C° 0 mm 3 mps 756 mmHg 63%
    14:00 +24°C° 0 mm 3 mps 756 mmHg 62%
    15:00 +24°C° 0 mm 3 mps 756 mmHg 61%
    16:00 +21°C° 0 mm 3 mps 755 mmHg 68%
    17:00 +20°C° 0 mm 3 mps 755 mmHg 76%
    18:00 +18°C° 0 mm 2 mps 755 mmHg 83%
    19:00 +18°C° 0 mm 3 mps 755 mmHg 85%
    20:00 +17°C° 0 mm 3 mps 755 mmHg 88%
    21:00 +16°C° 0 mm 3 mps 755 mmHg 90%
    22:00 +16°C° 0 mm 3 mps 755 mmHg 91%
    23:00 +16°C° 0 mm 3 mps 755 mmHg 92%

    23 September, Sunday

    Time Temperature Precipitation Wind Pressure Humidity
    00:00 +14°C° 0 mm 3 mps 754 mmHg 93%
    01:00 +14°C° 0 mm 3 mps 754 mmHg 93%
    02:00 +14°C° 0 mm 3 mps 754 mmHg 94%
    03:00 +14°C° 0 mm 3 mps 754 mmHg 94%
    04:00 +13°C° 0 mm 3 mps 754 mmHg 94%
    05:00 +13°C° 0 mm 3 mps 753 mmHg 94%
    06:00 +13°C° 0 mm 3 mps 753 mmHg 94%
    07:00 +14°C° 0 mm 3 mps 753 mmHg 86%
    08:00 +17°C° 0 mm 4 mps 753 mmHg 78%
    09:00 +19°C° 0 mm 4 mps 752 mmHg 70%
    10:00 +20°C° 0 mm 5 mps 752 mmHg 65%
    11:00 +21°C° 0 mm 5 mps 752 mmHg 60%
    12:00 +22°C° 0 mm 6 mps 751 mmHg 55%
    13:00 +22°C° 0 mm 6 mps 751 mmHg 55%
    14:00 +22°C° 0 mm 6 mps 750 mmHg 55%
    15:00 +23°C° 0 mm 6 mps 750 mmHg 55%
    16:00 +21°C° 0 mm 5 mps 749 mmHg 60%
    17:00 +20°C° 0 mm 5 mps 749 mmHg 64%
    18:00 +19°C° 0 mm 4 mps 748 mmHg 69%
    19:00 +19°C° 0 mm 5 mps 748 mmHg 68%
    20:00 +19°C° 0 mm 5 mps 747 mmHg 68%
    21:00 +17°C° 0 mm 6 mps 747 mmHg 68%
    22:00 +17°C° 0 mm 6 mps 746 mmHg 68%
    23:00 +17°C° 0 mm 6 mps 745 mmHg 67%

    24 September, Monday

    Time Temperature Precipitation Wind Pressure Humidity
    00:00 +17°C° 0 mm 6 mps 745 mmHg 67%
    01:00 +16°C° 0 mm 6 mps 744 mmHg 67%
    02:00 +16°C° 0 mm 6 mps 744 mmHg 66%
    03:00 +16°C° 0 mm 6 mps 744 mmHg 65%
    04:00 +15°C° 0.1 mm 6 mps 744 mmHg 68%
    05:00 +15°C° 0.1 mm 5 mps 744 mmHg 71%
    06:00 +14°C° 0.1 mm 5 mps 744 mmHg 74%
    07:00 +13°C° 0.5 mm 5 mps 744 mmHg 78%
    08:00 +10°C° 0.5 mm 5 mps 744 mmHg 82%
    09:00 +9°C° 0.5 mm 5 mps 744 mmHg 86%
    10:00 +9°C° 0.7 mm 5 mps 745 mmHg 84%
    11:00 +9°C° 0.7 mm 5 mps 745 mmHg 82%
    12:00 +9°C° 0.7 mm 5 mps 746 mmHg 80%
    13:00 +11°C° 0.1 mm 4 mps 746 mmHg 75%
    14:00 +12°C° 0.1 mm 4 mps 747 mmHg 70%
    15:00 +13°C° 0.1 mm 4 mps 747 mmHg 65%
    16:00 +12°C° 0 mm 3 mps 748 mmHg 69%
    17:00 +12°C° 0 mm 2 mps 748 mmHg 72%
    18:00 +10°C° 0 mm 2 mps 748 mmHg 76%
    19:00 +10°C° 0 mm 2 mps 748 mmHg 79%
    20:00 +9°C° 0 mm 2 mps 749 mmHg 82%
    21:00 +9°C° 0 mm 2 mps 749 mmHg 85%
    22:00 +8°C° 0 mm 2 mps 749 mmHg 86%
    23:00 +9°C° 0 mm 1 mps 749 mmHg 87%

    25 September, Tuesday

    Time Temperature Precipitation Wind Pressure Humidity
    00:00 +9°C° 0 mm 1 mps 750 mmHg 88%
    01:00 +9°C° 0 mm 1 mps 750 mmHg 89%
    02:00 +8°C° 0 mm 1 mps 750 mmHg 90%
    03:00 +8°C° 0 mm 1 mps 750 mmHg 90%
    04:00 +8°C° 0 mm 1 mps 750 mmHg 91%
    05:00 +8°C° 0 mm 1 mps 750 mmHg 91%
    06:00 +8°C° 0 mm 1 mps 750 mmHg 91%
    07:00 +8°C° 0 mm 2 mps 749 mmHg 85%
    08:00 +10°C° 0 mm 3 mps 749 mmHg 78%
    09:00 +12°C° 0 mm 4 mps 749 mmHg 71%
    10:00 +13°C° 0 mm 4 mps 749 mmHg 68%
    11:00 +13°C° 0 mm 4 mps 749 mmHg 66%
    12:00 +14°C° 0 mm 4 mps 749 mmHg 64%
    13:00 +14°C° 0.1 mm 5 mps 748 mmHg 64%
    14:00 +14°C° 0.1 mm 5 mps 748 mmHg 64%
    15:00 +14°C° 0.1 mm 6 mps 748 mmHg 65%
    16:00 +13°C° 0 mm 6 mps 747 mmHg 65%
    17:00 +13°C° 0 mm 6 mps 747 mmHg 66%
    18:00 +13°C° 0 mm 6 mps 747 mmHg 66%
    19:00 +13°C° 0.5 mm 6 mps 747 mmHg 69%
    20:00 +11°C° 0.5 mm 6 mps 746 mmHg 71%
    21:00 +11°C° 0.5 mm 6 mps 746 mmHg 74%
    22:00 +13°C° 0.1 mm 6 mps 746 mmHg 71%
    23:00 +13°C° 0.1 mm 6 mps 746 mmHg 69%
    Show more